Regional Weather Roundup
Issued by NWS

Home | Current Version | Previous Version | Graphics & Text | Print | Product List | Glossary On
Versions: 1 2 3 4 5 6 7 8 9 10 11 12 13 14 15 16 17 18 19 20 21 22 23 24 25 26 27 28 29 30 31 32 33 34 35 36 37 38 39 40 41 42 43 44 45 46 47 48 49 50
000
ASUS43 KDMX 260301
RWRIA

WEATHER ROUNDUP FOR IOWA
NATIONAL WEATHER SERVICE DES MOINES IA
1000 PM CDT TUE JUL 25 2017

NOTE: "FAIR" INDICATES FEW OR NO CLOUDS BELOW 12,000 FEET WITH NO
SIGNIFICANT WEATHER AND/OR OBSTRUCTIONS TO VISIBILITY.

* - THESE STATIONS ARE NOT NWS STATIONS...THUS NOT UNDER NWS
QUALITY CONTROL.  THEY ALSO DO NOT REPORT WEATHER SUCH
AS PRECIPITATION OR FOG.

IAZ001>003-012>014-020>022-031>034-043>046-260400-
   NORTHWEST IOWA

CITY           SKY/WX    TMP DP  RH WIND       PRES   REMARKS
CARROLL *      CLOUDY    77  75  94 SE10      29.98S
CHEROKEE *     CLOUDY    81  75  82 SE6       29.96R HX  86
DENISON *      CLOUDY    81  75  83 S14G21    29.98S HX  86
ORANGE CITY *  CLOUDY    81  75  83 SE5       29.95S HX  86
SHELDON *      CLOUDY    81  75  83 SE9       29.95R HX  86
SIOUX CITY     CLOUDY    83  76  79 SE10      29.91S HX  91
SPENCER        CLOUDY    82  74  76 SE7       29.99R HX  88
STORM LAKE *   CLOUDY    81  75  83 S9        30.00R HX  86
$$

IAZ055>058-069>071-079>083-090>094-260400-
   SOUTHWEST IOWA

CITY           SKY/WX    TMP DP  RH WIND       PRES   REMARKS
ATLANTIC *     CLOUDY    82  73  74 SE9       29.99R HX  88
AUDUBON *      CLOUDY    79  73  83 SE3       30.01S HX  82
CLARINDA *     MOCLDY    82  77  83 S7        30.02R HX  91
COUNCIL BLFS * MOCLDY    82  77  83 SE12      29.98R HX  91
CRESTON *      CLOUDY    81  75  83 SE12      30.05R HX  86
HARLAN  *      CLOUDY    82  75  78 S12       30.01S HX  89
LAMONI         MOCLDY    81  74  79 SE8       30.04R HX  86
RED OAK *      MOCLDY    82  75  78 S7        30.00R HX  89
SHENANDOAH *   CLOUDY    81  77  89 SE8       29.99R HX  88
$$

IAZ047>049-059>061-072>074-084-260400-
   CENTRAL IOWA

CITY           SKY/WX    TMP DP  RH WIND       PRES   REMARKS
AMES           CLOUDY    79  74  84 S9        30.01R HX  82
ANKENY *       CLOUDY    82  72  69 S8        30.02R HX  87
BOONE *        CLOUDY    77  73  88 CALM      30.01R
CHARITON *     CLOUDY    81  72  74 SE7       30.04R HX  84
DES MOINES     CLOUDY    84  72  67 SE8       30.01R HX  89
GRINNELL*      MOCLDY    77  68  73 SE8       30.06R
KNOXVILLE *    CLOUDY    81  70  69 SE9       30.03R HX  84
MARSHALLTOWN   CLOUDY    78  70  76 SE12      30.03R HX  80
NEWTON *       CLOUDY    79  70  73 SE9       30.04R HX  81
PELLA *        CLOUDY    81  66  60 SE6       30.05R HX  83
PERRY *          N/A     79  75  88 S6        30.01R HX  82
$$

IAZ004>006-015-016-023>025-035-036-260400-
   NORTH CENTRAL IOWA

CITY           SKY/WX    TMP DP  RH WIND       PRES   REMARKS
ALGONA *       CLOUDY    79  75  89 SE7       30.00S HX  82
ESTHERVILLE    CLOUDY    77  74  90 CALM      30.00R
FORT DODGE *   CLOUDY    81  72  74 SE5       30.00S HX  84
MASON CITY     CLOUDY    75  70  84 SE8       30.04R
FOREST CITY *    N/A     77  72  83 SE6       30.02S
WEBSTER CITY * CLOUDY    79  72  78 SE6       29.99R HX  82
IOWA FALLS *     N/A     77  70  79 SE8       30.04R
$$

IAZ007>011-017>019-026>030-037>042-050>054-066-260400-
   NORTHEAST IOWA

CITY           SKY/WX    TMP DP  RH WIND       PRES   REMARKS
CHARLES CITY * CLOUDY    73  72  94 SE7       30.04S
DECORAH *      CLOUDY    72  68  88 S7G13     30.04S
DUBUQUE        CLOUDY    71  67  87 S8        30.10S
MONTICELLO *   CLOUDY    72  70  94 SE5       30.07S
OELWEIN *      CLOUDY    72  72 100 SE8       30.07R
$$

IAZ064-065-067-068-078-260400-
   EAST CENTRAL IOWA

CITY           SKY/WX    TMP DP  RH WIND       PRES   REMARKS
DAVENPORT      PTCLDY    72  67  84 SE7       30.11S
IOWA CITY        N/A     75  69  81 SE8       30.07
MUSCATINE *    MOCLDY    77  68  73 SE5       30.07F
QUAD CITIES    CLOUDY    73  67  81 SE6       30.09S
$$

IAZ062-063-075>077-085>089-095>099-260400-
   SOUTHEAST IOWA

CITY           SKY/WX    TMP DP  RH WIND       PRES   REMARKS
BURLINGTON     PTCLDY    77  70  79 SE8       30.08S
FAIRFIELD *    PTCLDY    79  68  69 SE9       30.06S HX  81
FORT MADISON * CLOUDY    75  70  83 SE8       30.08F
KEOKUK *       CLOUDY    77  70  78 SE7       30.07S
OSKALOOSA *      N/A     76  66  71 SE5       30.05S
OTTUMWA        MOCLDY    81  66  60 SE8       30.05S HX  83
WASHINGTON *   CLOUDY    73  70  88 SE6       30.08S
$$

ABBREVIATIONS USED IN REMARKS
   TC - TEMPERATURES IN CELSIUS
  WCI - WIND CHILL INDEX
   HX - HEAT INDEX
  VSB - VISIBILITY
$$





USA.gov is the U.S. government's official web portal to all federal, state and local government web resources and services.